CDT,Max TemperatureF,Mean TemperatureF,Min TemperatureF,Max Dew PointF,MeanDew PointF,Min DewpointF,Max Humidity, Mean Humidity, Min Humidity, Max Sea Level PressureIn, Mean Sea Level PressureIn, Min Sea Level PressureIn, Max VisibilityMiles, Mean VisibilityMiles, Min VisibilityMiles, Max Wind SpeedMPH, Mean Wind SpeedMPH, Max Gust SpeedMPH,PrecipitationIn, CloudCover, Events, WindDirDegrees
2013-5-1,,,,,,,,,,,,,,,,,,,,,,
2013-5-2,,,,,,,,,,,,,,,,,,,,,,
2013-5-3,,,,,,,,,,,,,,,,,,,,,,
2013-5-4,,,,,,,,,,,,,,,,,,,,,,
2013-5-5,,,,,,,,,,,,,,,,,,,,,,
2013-5-6,,,,,,,,,,,,,,,,,,,,,,
2013-5-7,,,,,,,,,,,,,,,,,,,,,,
2013-5-8,,,,,,,,,,,,,,,,,,,,,,
2013-5-9,64,54,43,54,51,43,100,92,60,29.98,29.96,29.94,10,4,2,18,10,24,0.37,7,Rain,50
2013-5-10,56,46,37,45,41,36,100,85,62,30.04,29.98,29.93,10,8,3,18,11,28,0.18,6,Rain,37
2013-5-11,52,44,37,48,32,18,100,68,31,30.05,29.91,29.80,10,9,2,23,9,39,0.00,4,Rain,305
2013-5-12,52,43,34,26,20,16,65,43,26,30.14,30.09,30.06,10,10,10,16,11,28,0.00,2,,332
2013-5-13,63,44,26,35,26,18,92,52,18,30.19,30.08,29.88,10,10,10,13,3,23,0.00,1,,166
2013-5-14,82,62,41,56,45,33,85,47,23,29.85,29.67,29.48,10,9,2,16,7,21,0.00,0,,166
2013-5-15,75,66,54,46,39,33,60,38,22,29.85,29.77,29.58,10,10,10,16,10,24,0.00,0,,294
2013-5-16,81,62,45,47,42,34,93,48,27,30.01,29.92,29.86,10,10,10,15,5,22,0.00,1,,59
2013-5-17,55,51,47,52,46,33,100,83,42,30.14,30.09,30.01,10,8,4,13,9,,0.21,6,Rain,76
2013-5-18,77,62,48,61,55,48,100,78,55,30.09,30.03,29.92,10,9,8,9,7,,0.00,4,,101
2013-5-19,83,68,52,64,58,53,100,81,42,29.95,29.86,29.66,10,6,2,17,3,22,0.00,1,,136
2013-5-20,81,70,59,63,60,57,100,74,45,29.82,29.69,29.62,10,8,1,20,11,37,0.27,2,Rain,176
2013-5-21,75,69,59,64,58,54,94,68,50,29.69,29.62,29.57,10,10,6,16,9,21,0.00,5,Rain,201
2013-5-22,63,56,51,59,56,49,100,97,82,29.83,29.72,29.65,10,7,2,15,6,24,0.17,7,Rain,42
2013-5-23,61,52,44,49,40,26,100,72,26,30.34,30.06,29.85,10,9,4,16,12,28,0.03,5,Rain,17
2013-5-24,63,47,31,41,33,29,96,58,32,30.47,30.38,30.32,10,10,10,8,3,,0.00,0,,93
2013-5-25,64,54,43,40,35,32,80,51,32,30.40,30.35,30.30,10,10,10,9,4,20,0.00,1,,110
2013-5-26,65,50,36,39,37,35,96,57,34,30.33,30.26,30.19,10,10,9,15,5,,0.00,2,,94
2013-5-27,56,53,50,54,48,36,100,86,49,30.16,30.03,29.93,10,6,1,13,8,21,0.17,8,Rain,91
2013-5-28,60,54,48,59,54,48,100,100,93,29.92,29.80,29.74,9,3,1,13,6,,0.03,8,Rain,69
2013-5-29,83,70,57,65,60,57,100,90,43,29.90,29.84,29.79,10,4,0,17,4,29,0.09,6,Fog-Rain,189
2013-5-30,82,72,61,69,65,60,100,83,56,29.89,29.78,29.68,10,7,0,23,6,38,0.36,4,Rain,163
2013-5-31,79,70,63,63,60,57,90,75,52,29.76,29.72,29.65,10,10,10,16,9,26,0.00,4,,186